�������l�o���
Date,Time,MP-1(��Sv/h),MP-2(��Sv/h),MP-3(��Sv/h),MP-4(��Sv/h),MP-5(��Sv/h),MP-6(��Sv/h),MP-7(��Sv/h),����,����(m/s),���J
2022/11/16,00:00,0.156,0.140,0.223,0.214,0.214,0.123,0.079,���k��,0.6,��
2022/11/16,00:10,0.155,0.141,0.224,0.214,0.214,0.124,0.079,-,CALM,��
2022/11/16,00:20,0.155,0.140,0.224,0.215,0.213,0.123,0.079,��,1.3,��
2022/11/16,00:30,0.156,0.141,0.224,0.215,0.213,0.125,0.078,���k��,0.7,��
2022/11/16,00:40,0.156,0.142,0.223,0.214,0.213,0.123,0.079,�k,1.9,��
2022/11/16,00:50,0.155,0.141,0.224,0.215,0.214,0.123,0.079,�k,1.0,��
2022/11/16,01:00,0.156,0.141,0.223,0.215,0.214,0.123,0.079,�k�k��,2.3,��
2022/11/16,01:10,0.155,0.141,0.224,0.214,0.215,0.125,0.079,�k��,3.7,��
2022/11/16,01:20,0.155,0.141,0.224,0.214,0.214,0.124,0.079,�k��,3.6,��
2022/11/16,01:30,0.155,0.140,0.223,0.214,0.213,0.124,0.078,�k��,2.5,��
2022/11/16,01:40,0.156,0.141,0.223,0.215,0.215,0.124,0.079,�k��,3.6,��
2022/11/16,01:50,0.155,0.141,0.223,0.215,0.213,0.123,0.079,�k��,5.4,��
2022/11/16,02:00,0.155,0.142,0.223,0.214,0.213,0.124,0.079,�k��,8.1,��
2022/11/16,02:10,0.155,0.140,0.223,0.214,0.213,0.123,0.079,���k��,11.2,��
2022/11/16,02:20,0.155,0.142,0.223,0.215,0.213,0.123,0.078,���k��,11.4,��
2022/11/16,02:30,0.155,0.141,0.223,0.215,0.213,0.124,0.079,���k��,12.5,��
2022/11/16,02:40,0.155,0.141,0.224,0.213,0.213,0.125,0.078,���k��,9.6,��
2022/11/16,02:50,0.155,0.141,0.223,0.214,0.214,0.124,0.078,�k��,5.2,��
2022/11/16,03:00,0.156,0.140,0.224,0.214,0.214,0.124,0.078,���k��,3.4,��
2022/11/16,03:10,0.156,0.141,0.223,0.214,0.213,0.123,0.078,���k��,5.8,��
2022/11/16,03:20,0.156,0.141,0.223,0.215,0.215,0.123,0.078,�k��,8.2,��
2022/11/16,03:30,0.155,0.142,0.223,0.215,0.213,0.123,0.078,�k��,9.0,��
2022/11/16,03:40,0.156,0.142,0.224,0.214,0.213,0.124,0.078,�k��,8.6,��
2022/11/16,03:50,0.156,0.141,0.223,0.214,0.214,0.124,0.078,���k��,6.9,��
2022/11/16,04:00,0.155,0.140,0.224,0.214,0.214,0.123,0.078,���k��,8.2,��
2022/11/16,04:10,0.156,0.141,0.224,0.214,0.214,0.124,0.078,���k��,6.7,��
2022/11/16,04:20,0.156,0.141,0.223,0.214,0.214,0.123,0.078,���k��,7.5,��
2022/11/16,04:30,0.155,0.141,0.223,0.213,0.214,0.124,0.079,�k��,6.1,��
2022/11/16,04:40,0.156,0.140,0.223,0.214,0.214,0.124,0.078,���k��,7.4,��
2022/11/16,04:50,0.157,0.142,0.223,0.215,0.214,0.124,0.079,���k��,9.0,��
2022/11/16,05:00,0.155,0.141,0.222,0.213,0.215,0.124,0.079,���k��,8.6,��
2022/11/16,05:10,0.156,0.141,0.224,0.215,0.215,0.124,0.078,�k��,7.5,��
2022/11/16,05:20,0.155,0.141,0.224,0.214,0.213,0.124,0.079,���k��,5.2,��
2022/11/16,05:30,0.156,0.141,0.223,0.214,0.213,0.123,0.079,�k��,5.3,��
2022/11/16,05:40,0.157,0.141,0.223,0.214,0.215,0.124,0.079,���k��,4.2,��
2022/11/16,05:50,0.156,0.142,0.225,0.214,0.214,0.123,0.079,���k��,4.1,��
2022/11/16,06:00,0.156,0.141,0.223,0.214,0.213,0.124,0.078,���k��,4.1,��
2022/11/16,06:10,0.155,0.141,0.223,0.214,0.214,0.124,0.079,���k��,5.1,��
2022/11/16,06:20,0.156,0.141,0.223,0.214,0.213,0.123,0.079,���k��,4.6,��
2022/11/16,06:30,0.156,0.142,0.224,0.214,0.213,0.124,0.079,���k��,2.9,��
2022/11/16,06:40,0.156,0.141,0.224,0.215,0.214,0.123,0.079,���k��,3.0,��
2022/11/16,06:50,0.155,0.142,0.224,0.214,0.212,0.124,0.078,�k��,5.4,��
2022/11/16,07:00,0.155,0.141,0.223,0.215,0.214,0.123,0.078,�k��,7.2,��
2022/11/16,07:10,0.156,0.141,0.224,0.215,0.214,0.123,0.078,�k��,8.3,��
2022/11/16,07:20,0.157,0.141,0.223,0.214,0.213,0.124,0.079,�k��,9.5,��
2022/11/16,07:30,0.156,0.142,0.223,0.215,0.213,0.124,0.078,�k��,9.2,��
2022/11/16,07:40,0.157,0.141,0.225,0.215,0.214,0.124,0.079,�k��,10.0,��
2022/11/16,07:50,0.156,0.141,0.224,0.214,0.214,0.123,0.079,�k��,10.1,��
2022/11/16,08:00,0.156,0.142,0.225,0.215,0.214,0.124,0.078,�k��,8.6,��
2022/11/16,08:10,0.156,0.142,0.224,0.216,0.215,0.124,0.078,�k��,7.5,��
2022/11/16,08:20,0.157,0.141,0.224,0.215,0.214,0.123,0.079,���k��,5.7,��
2022/11/16,08:30,0.156,0.143,0.224,0.214,0.213,0.124,0.079,�k��,6.4,��
2022/11/16,08:40,0.156,0.141,0.223,0.215,0.215,0.124,0.079,�k��,5.9,��
2022/11/16,08:50,0.156,0.141,0.224,0.214,0.214,0.123,0.079,�k��,4.6,��
2022/11/16,09:00,0.156,0.141,0.223,0.214,0.216,0.123,0.079,�k��,3.5,��
2022/11/16,09:10,0.156,0.141,0.224,0.213,0.214,0.123,0.079,�k��,2.5,��
2022/11/16,09:20,0.157,0.141,0.224,0.214,0.214,0.123,0.079,�k��,4.2,��
2022/11/16,09:30,0.156,0.141,0.224,0.214,0.215,0.123,0.079,�k��,4.2,��
2022/11/16,09:40,0.156,0.141,0.225,0.214,0.213,0.124,0.078,���k��,5.2,��
2022/11/16,09:50,0.155,0.141,0.224,0.214,0.216,0.124,0.079,�k�k��,3.9,��
2022/11/16,10:00,0.156,0.140,0.224,0.215,0.213,0.124,0.078,�k�k��,3.5,��
2022/11/16,10:10,0.154,0.141,0.222,0.213,0.213,0.124,0.079,�k�k��,4.1,��
2022/11/16,10:20,0.156,0.141,0.223,0.216,0.213,0.123,0.078,���k��,2.9,��
2022/11/16,10:30,0.154,0.142,0.222,0.213,0.212,0.124,0.079,�k��,3.2,��
2022/11/16,10:40,0.155,0.140,0.222,0.214,0.214,0.124,0.079,�k��,4.2,��
2022/11/16,10:50,0.156,0.141,0.222,0.214,0.214,0.124,0.078,���k��,3.7,��
2022/11/16,11:00,0.154,0.141,0.222,0.212,0.212,0.124,0.078,�k��,4.5,��
2022/11/16,11:10,0.156,0.141,0.222,0.215,0.215,0.123,0.079,�k��,4.1,��
2022/11/16,11:20,0.154,0.142,0.222,0.214,0.214,0.124,0.079,�k�k��,1.9,��
2022/11/16,11:30,0.156,0.141,0.223,0.216,0.214,0.124,0.078,�k��,1.4,��
2022/11/16,11:40,0.156,0.141,0.224,0.214,0.216,0.124,0.079,�k��,2.6,��
2022/11/16,11:50,0.156,0.142,0.224,0.216,0.213,0.123,0.079,���k��,5.9,��
2022/11/16,12:00,0.156,0.141,0.226,0.215,0.216,0.125,0.079,�k��,4.0,��
2022/11/16,12:10,0.157,0.141,0.225,0.217,0.214,0.124,0.079,���k��,5.4,��
2022/11/16,12:20,0.156,0.141,0.226,0.215,0.214,0.124,0.079,���k��,8.1,��
2022/11/16,12:30,0.157,0.142,0.224,0.215,0.215,0.123,0.077,�k��,6.0,��
2022/11/16,12:40,0.156,0.143,0.224,0.215,0.214,0.125,0.079,��,4.8,��
2022/11/16,12:50,0.156,0.140,0.223,0.213,0.216,0.125,0.079,�k��,4.7,��
2022/11/16,13:00,0.157,0.140,0.226,0.215,0.213,0.125,0.078,���k��,4.1,��
2022/11/16,13:10,0.154,0.141,0.222,0.214,0.215,0.125,0.079,���k��,6.0,��
2022/11/16,13:20,0.157,0.142,0.224,0.213,0.213,0.124,0.079,���k��,6.8,��
2022/11/16,13:30,0.156,0.142,0.224,0.216,0.215,0.125,0.079,���k��,6.7,��
2022/11/16,13:40,0.155,0.140,0.224,0.214,0.214,0.125,0.079,���k��,5.6,��
2022/11/16,13:50,0.156,0.140,0.225,0.216,0.213,0.125,0.078,���k��,6.2,��
2022/11/16,14:00,0.157,-,0.225,0.215,0.216,0.123,0.079,���k��,7.0,��
2022/11/16,14:10,0.156,-,0.225,0.216,0.214,0.125,0.079,���k��,4.6,��
2022/11/16,14:20,0.157,-,0.224,0.215,0.215,0.125,0.079,���k��,4.5,��
2022/11/16,14:30,0.157,-,0.225,0.216,0.214,0.124,0.079,��,7.5,��
2022/11/16,14:40,0.157,-,0.226,0.216,0.216,0.125,0.079,���k��,6.4,��
2022/11/16,14:50,0.157,-,0.225,0.216,0.215,0.125,0.079,��,4.9,��
2022/11/16,15:00,0.158,-,0.226,0.216,0.216,0.124,0.080,��,5.9,��
2022/11/16,15:10,0.157,-,0.224,0.216,0.216,0.125,0.079,��,5.1,��
2022/11/16,15:20,0.157,0.141,0.225,0.217,0.217,0.125,0.080,���k��,2.8,��
2022/11/16,15:30,0.156,0.142,0.227,0.216,0.215,0.125,0.079,�k��,3.6,��
2022/11/16,15:40,0.157,0.142,0.225,0.216,0.216,0.125,0.079,���k��,5.0,��
2022/11/16,15:50,0.157,0.143,0.227,0.218,0.215,0.125,0.079,�k��,3.9,��
2022/11/16,16:00,0.157,0.143,0.225,0.216,0.217,0.125,0.079,�k��,4.4,��
2022/11/16,16:10,0.158,0.142,0.225,0.216,0.216,0.124,0.079,�k��,3.9,��
2022/11/16,16:20,0.156,0.143,0.225,0.216,0.215,0.125,0.078,�k��,3.6,��
2022/11/16,16:30,0.158,0.142,0.226,0.216,0.216,0.125,0.078,�k��,2.5,��
2022/11/16,16:40,0.157,0.143,0.226,0.216,0.216,0.126,0.080,�k��,3.3,��
2022/11/16,16:50,0.156,0.143,0.226,0.217,0.217,0.126,0.079,�k��,4.5,��
2022/11/16,17:00,0.158,0.142,0.226,0.217,0.216,0.126,0.079,�k��,4.4,��
2022/11/16,17:10,0.158,0.142,0.226,0.216,0.215,0.125,0.079,�k��,3.8,��
2022/11/16,17:20,0.156,0.143,0.226,0.217,0.215,0.126,0.079,�k��,4.0,��
2022/11/16,17:30,0.157,0.143,0.226,0.215,0.216,0.125,0.079,�k��,4.6,��
2022/11/16,17:40,0.157,0.143,0.225,0.216,0.215,0.125,0.079,�k��,5.2,��
2022/11/16,17:50,0.156,0.142,0.225,0.217,0.216,0.125,0.079,�k��,5.6,��
2022/11/16,18:00,0.158,0.143,0.225,0.217,0.216,0.126,0.080,�k��,5.5,��
2022/11/16,18:10,0.157,0.142,0.225,0.216,0.215,0.126,0.080,�k��,4.8,��
2022/11/16,18:20,0.157,0.142,0.225,0.216,0.216,0.126,0.078,���k��,5.4,��
2022/11/16,18:30,0.157,0.143,0.226,0.216,0.215,0.125,0.079,���k��,6.4,��
2022/11/16,18:40,0.157,0.143,0.226,0.216,0.215,0.126,0.079,���k��,6.8,��
2022/11/16,18:50,0.158,0.142,0.225,0.217,0.217,0.126,0.079,���k��,6.7,��
2022/11/16,19:00,0.157,0.143,0.226,0.216,0.215,0.125,0.079,���k��,6.9,��
2022/11/16,19:10,0.157,0.143,0.225,0.218,0.215,0.125,0.079,���k��,7.4,��
2022/11/16,19:20,0.156,0.142,0.226,0.218,0.216,0.124,0.079,���k��,8.1,��
2022/11/16,19:30,0.158,0.143,0.226,0.217,0.215,0.126,0.079,���k��,7.1,��
2022/11/16,19:40,0.157,0.142,0.224,0.216,0.215,0.125,0.080,���k��,6.3,��
2022/11/16,19:50,0.158,0.142,0.227,0.217,0.216,0.125,0.080,���k��,6.6,��
2022/11/16,20:00,0.158,0.143,0.225,0.216,0.216,0.124,0.079,���k��,6.8,��
2022/11/16,20:10,0.157,0.142,0.226,0.216,0.214,0.125,0.079,���k��,6.5,��
2022/11/16,20:20,0.157,0.142,0.225,0.217,0.215,0.126,0.080,���k��,7.0,��
2022/11/16,20:30,0.158,0.142,0.226,0.218,0.216,0.125,0.079,���k��,6.9,��
2022/11/16,20:40,0.158,0.142,0.227,0.217,0.216,0.125,0.080,��,7.4,��
2022/11/16,20:50,0.157,0.143,0.226,0.216,0.215,0.125,0.079,���k��,7.1,��
2022/11/16,21:00,0.157,0.141,0.225,0.218,0.215,0.125,0.080,���k��,6.6,��
2022/11/16,21:10,0.158,0.142,0.226,0.216,0.215,0.126,0.079,���k��,6.8,��
2022/11/16,21:20,0.158,0.143,0.225,0.216,0.215,0.125,0.080,���k��,6.2,��
2022/11/16,21:30,0.157,0.143,0.227,0.216,0.215,0.125,0.079,���k��,8.7,��
2022/11/16,21:40,0.157,0.142,0.226,0.217,0.214,0.125,0.079,���k��,10.4,��
2022/11/16,21:50,0.158,0.143,0.226,0.215,0.215,0.125,0.079,���k��,9.2,��
2022/11/16,22:00,0.157,0.142,0.226,0.217,0.215,0.125,0.079,���k��,10.1,��
2022/11/16,22:10,0.158,0.143,0.225,0.216,0.215,0.126,0.079,���k��,11.7,��
2022/11/16,22:20,0.158,0.142,0.227,0.218,0.216,0.124,0.080,���k��,12.3,��
2022/11/16,22:30,0.157,0.143,0.228,0.217,0.215,0.125,0.080,���k��,11.1,��
2022/11/16,22:40,0.156,0.142,0.226,0.216,0.214,0.124,0.079,���k��,10.1,��
2022/11/16,22:50,0.158,0.143,0.225,0.217,0.214,0.125,0.080,���k��,11.5,��
2022/11/16,23:00,0.157,0.142,0.226,0.216,0.215,0.125,0.079,���k��,11.1,��
2022/11/16,23:10,0.157,0.142,0.226,0.216,0.215,0.125,0.079,���k��,9.5,��
2022/11/16,23:20,0.157,0.142,0.225,0.217,0.216,0.126,0.079,���k��,10.1,��
2022/11/16,23:30,0.158,0.143,0.226,0.217,0.216,0.126,0.080,���k��,10.1,��
2022/11/16,23:40,0.158,0.142,0.226,0.216,0.215,0.125,0.079,���k��,10.9,��
2022/11/16,23:50,0.158,0.141,0.226,0.217,0.216,0.126,0.079,���k��,11.7,��
